Weather History for CWCL - May, 2013

Change the Weather History Date:

Thursday, May 9, 2013

  Actual Average Record
Temperature  
Mean Temperature 60 °F -  
Max Temperature 80 °F 54 °F 80 °F (2013)
Min Temperature 41 °F 30 °F 23 °F (1999)
Degree Days  
Heating Degree Days 4    
Growing Degree Days 10 (Base 50)    
Moisture  
Dew Point 29 °F    
Average Humidity 31    
Maximum Humidity 65    
Minimum Humidity 8    
Precipitation  
Precipitation 0.02 in - - ()
Sea Level Pressure  
Sea Level Pressure 30.12 in    
Wind  
Wind Speed 4 mph ()    
Max Wind Speed 10 mph    
Max Gust Speed -    
Visibility 9.0 miles    
Events      
Averages and records for this station are not official NWS values.
T = Trace of Precipitation, MM = Missing Value Source: Averaged Metar Reports

Daily Weather History Graph

Daily Weather History Graph

Search for Another Location

Airport or City:

Trip Planner

Search our weather history database for the weather conditions in past years. The results will help you decide how hot, cold, wet, or windy it might be!

Date:

Astronomy

May. 09, 2013 Rise Set
Actual Time 5:24 AM PDT 8:41 PM PDT
Civil Twilight 4:44 AM PDT 9:21 PM PDT
Nautical Twilight 3:52 AM PDT 10:14 PM PDT
Astronomical Twilight 2:42 AM PDT 11:25 PM PDT
Moon 5:15 AM PDT (5/9) 8:41 PM PDT (5/9)
Length of Visible Light 16h 36m
Length of Day
15h 17m
Waning Crescent, 0% of the Moon is Illuminated
May 9
Waning Crescent
May 9
New
May 17
First Quarter
May 24
Full
May 31
Last Quarter

Hourly Weather History & Observations

Time (PDT) Temp. Windchill Dew Point Humidity Pressure Visibility Wind Dir Wind Speed Gust Speed Precip Events Conditions
12:00 AM 50.0 °F - 30.2 °F 47% 30.05 in 9.0 mi WSW 5.8 mph - N/A   Clear
1:00 AM 53.6 °F - 30.2 °F 41% 30.06 in 9.0 mi SSW 3.5 mph - N/A   Clear
2:00 AM 48 °F - 31 °F 38% 30.08 in 9 mi SW 3.5 mph - -  
2:00 AM 48.2 °F - 30.2 °F 50% 30.08 in 9.0 mi SSW 2.3 mph - N/A   Clear
3:00 AM 44.6 °F 42.2 °F 30.2 °F 57% 30.09 in 9.0 mi SW 4.6 mph - N/A   Clear
4:00 AM 44.6 °F 41.4 °F 30.2 °F 57% 30.11 in 9.0 mi SW 5.8 mph - N/A   Clear
5:00 AM 43 °F - 30 °F 49% 30.12 in 9 mi SSW 2.3 mph - -  
5:00 AM 42.8 °F - 30.2 °F 61% 30.12 in 9.0 mi South 2.3 mph - N/A   Clear
6:00 AM 41.0 °F - 30.2 °F 65% 30.16 in 9.0 mi SSW 2.3 mph - N/A   Clear
7:00 AM 50.0 °F - 35.6 °F 58% 30.17 in 9.0 mi Calm Calm - N/A   Clear
8:00 AM 58 °F - 37 °F 34% 30.19 in 9 mi Calm Calm - -  
8:00 AM 57.2 °F - 37.4 °F 48% 30.19 in 9.0 mi Calm Calm - N/A   Clear
9:00 AM 60.8 °F - 33.8 °F 36% 30.18 in 9.0 mi South 3.5 mph - N/A   Clear
10:00 AM 66.2 °F - 33.8 °F 30% 30.17 in 9.0 mi ESE 3.5 mph - N/A   Clear
11:00 AM 71 °F - 32 °F 13% 30.16 in 9 mi East 3.5 mph - -  
11:00 AM 71.6 °F - 32.0 °F 23% 30.16 in 9.0 mi ESE 4.6 mph - N/A   Clear
12:00 PM 71.6 °F - 24.8 °F 17% 30.16 in 9.0 mi ENE 2.3 mph - N/A   Clear
1:00 PM 75.2 °F - 28.4 °F 18% 30.12 in 9.0 mi NNE 4.6 mph - N/A   Clear
2:00 PM 76 °F - 26 °F 8% 30.13 in 9 mi NE 5.8 mph - -  
2:00 PM 75.2 °F - 26.6 °F 17% 30.13 in 9.0 mi NE 3.5 mph - N/A   Clear
3:00 PM 77.0 °F - 26.6 °F 16% 30.12 in 9.0 mi North 3.5 mph - N/A   Clear
4:00 PM 80.6 °F - 24.8 °F 13% 30.10 in 9.0 mi Calm Calm - N/A   Clear
5:00 PM 78.8 °F - 23.0 °F 13% 30.09 in 9.0 mi NE 6.9 mph - N/A   Clear
6:00 PM 77.0 °F - 23.0 °F 13% 30.09 in 9.0 mi NNE 10.4 mph - N/A   Clear
7:00 PM 75.2 °F - 23.0 °F 14% 30.08 in 9.0 mi NNE 8.1 mph - N/A   Clear
8:00 PM 71 °F - 22 °F 8% 30.09 in 9 mi NNE 8.1 mph - -  
8:00 PM 71.6 °F - 23.0 °F 16% 30.09 in 9.0 mi NNE 6.9 mph - N/A   Clear
9:00 PM 60.8 °F - 26.6 °F 27% 30.12 in 9.0 mi North 6.9 mph - N/A   Clear
10:00 PM 57.2 °F - 24.8 °F 29% 30.14 in 9.0 mi NNW 4.6 mph - N/A   Clear
11:00 PM 54 °F - 25 °F 21% 30.15 in 9 mi NW 6.9 mph - -  
11:00 PM 55.4 °F - 24.8 °F 31% 30.15 in 9.0 mi NW 6.9 mph - N/A   Clear